234P/LINEAR (2017)

Japanese version
Home page
Updated on March 25, 2017

---------------------------------------------------------------------

* Profile

* Pictures

* Orbital Elements

Epoch 2017 June 16.0 TT = JDT 2457920.5
T 2017 June 1.67758 TT                                  MPCW
q   2.8478557            (2000.0)            P               Q
n   0.13238456     Peri.  358.09218     -0.99927666     -0.03801604
a   3.8128040      Node   179.72356     +0.03699830     -0.97775956
e   0.2530810      Incl.   11.52562     +0.00879060     -0.20625477
P   7.45
From 189 observations 2001 Dec. 26-2017 Mar. 4, mean residual 0".6.

* Magnitudes Graph

        m1 = 12.5 + 5 log d + 10.0 log r

---------------------------------------------------------------------

The orbital elements are published on M.P.E.C. 2017-E59.
The magnitudes graphs are made with Comet for Windows.

---------------------------------------------------------------------

Copyright(C) Seiichi Yoshida (comet@aerith.net). All rights reserved.